Location: Newark
(33.6439°N, 114.9881°W)
Time: 09:38:00
(UTC+00:00)

A-11 Canister half - Pass Details

Date: 24 August 2019
Orbit: 1527 x 1682 km, 47.3° (Epoch: 17 September)

Event Time Altitude Azimuth Distance (km) Brightness Sun altitude
Rises 19:48:36 0° 258° (WSW) 4,834 11.7 67.3°
Reaches altitude 10° 19:51:51 10° 264° (W) 3,869 11.3 67.2°
Maximum altitude 20:01:25 50° 338° (NNW) 2,040 10.2 66.9°
Drops below altitude 10° 20:11:13 10° 52° (NE) 3,946 11.1 66.4°
Sets 20:14:35 0° 58° (ENE) 4,936 11.5 66.2°
